Time,TemperatureF,DewpointF,PressureIn,WindDirection,WindDirectionDegrees,WindSpeedMPH,WindSpeedGustMPH,Humidity,HourlyPrecipIn,Conditions,Clouds,dailyrainin,SoftwareType,DateUTC
2013-10-16 00:04:00,51.0,51.0,-100.00,North,-999,-999.0,-999.0,100,0.00,,,0.12,,2013-10-16 05:04:00,
2013-10-16 00:22:00,51.0,51.0,-100.00,North,-999,-999.0,-999.0,100,0.00,,,0.12,,2013-10-16 05:22:00,
2013-10-16 00:52:00,51.0,51.0,-100.00,North,-999,-999.0,-999.0,100,0.00,,,0.12,,2013-10-16 05:52:00,
2013-10-16 01:03:00,51.0,51.0,-100.00,North,-999,-999.0,-999.0,100,0.00,,,0.12,,2013-10-16 06:03:00,
2013-10-16 01:22:00,51.0,51.0,-100.00,North,-999,-999.0,-999.0,100,0.08,,,0.20,,2013-10-16 06:22:00,
2013-10-16 01:33:00,51.0,51.0,-100.00,North,-999,-999.0,-999.0,100,0.08,,,0.20,,2013-10-16 06:33:00,
2013-10-16 01:52:00,51.0,51.0,-100.00,North,-999,-999.0,-999.0,100,0.17,,,0.29,,2013-10-16 06:52:00,
2013-10-16 02:21:00,51.0,51.0,-100.00,North,-999,-999.0,-999.0,100,0.16,,,-99.99,,2013-10-16 07:21:00,
2013-10-16 02:32:00,51.0,51.0,-100.00,North,-999,-999.0,-999.0,100,0.16,,,-99.99,,2013-10-16 07:32:00,
2013-10-16 02:42:00,51.0,51.0,-100.00,North,-999,-999.0,-999.0,100,0.16,,,-99.99,,2013-10-16 07:42:00,
2013-10-16 02:52:00,51.0,51.0,-100.00,North,-999,-999.0,-999.0,100,0.16,,,-99.99,,2013-10-16 07:52:00,
2013-10-16 03:11:00,50.0,50.0,-100.00,North,-999,-999.0,-999.0,100,0.34,,,0.68,,2013-10-16 08:11:00,
2013-10-16 03:21:00,50.0,50.0,-100.00,North,-999,-999.0,-999.0,100,0.34,,,0.68,,2013-10-16 08:21:00,
2013-10-16 03:52:00,50.0,50.0,-100.00,North,-999,-999.0,-999.0,100,0.18,,,0.86,,2013-10-16 08:52:00,
2013-10-16 04:02:00,50.0,50.0,-100.00,North,-999,-999.0,-999.0,100,0.18,,,0.86,,2013-10-16 09:02:00,
2013-10-16 04:22:00,50.0,50.0,-100.00,North,-999,-999.0,-999.0,100,-99.99,,,0.95,,2013-10-16 09:22:00,
2013-10-16 04:53:00,49.0,49.0,-100.00,North,-999,-999.0,-999.0,100,0.21,,,1.07,,2013-10-16 09:53:00,
2013-10-16 05:23:00,49.0,49.0,-100.00,North,-999,-999.0,-999.0,100,0.23,,,1.18,,2013-10-16 10:23:00,
2013-10-16 05:53:00,49.0,49.0,-100.00,North,-999,-999.0,-999.0,100,0.22,,,1.29,,2013-10-16 10:53:00,
2013-10-16 06:12:00,49.0,49.0,-100.00,North,-999,-999.0,-999.0,100,0.25,,,1.36,,2013-10-16 11:12:00,
2013-10-16 06:22:00,49.0,49.0,-100.00,North,-999,-999.0,-999.0,100,0.25,,,1.36,,2013-10-16 11:22:00,
2013-10-16 06:52:00,49.0,49.0,-100.00,North,-999,-999.0,-999.0,100,0.31,,,1.60,,2013-10-16 11:52:00,
2013-10-16 07:12:00,49.0,49.0,-100.00,North,-999,-999.0,-999.0,100,0.34,,,1.70,,2013-10-16 12:12:00,
2013-10-16 07:21:00,49.0,49.0,-100.00,North,-999,-999.0,-999.0,100,0.34,,,1.70,,2013-10-16 12:21:00,
2013-10-16 07:52:00,49.0,49.0,-100.00,North,-999,-999.0,-999.0,100,0.17,,,1.77,,2013-10-16 12:52:00,
2013-10-16 08:22:00,50.0,50.0,-100.00,North,-999,-999.0,-999.0,100,-99.99,,,1.77,,2013-10-16 13:22:00,
2013-10-16 08:52:00,50.0,50.0,-100.00,North,-999,-999.0,-999.0,100,0.04,,,1.81,,2013-10-16 13:52:00,
2013-10-16 09:22:00,50.0,50.0,-100.00,North,-999,-999.0,-999.0,100,0.05,,,1.82,,2013-10-16 14:22:00,
2013-10-16 09:52:00,50.0,50.0,-100.00,North,-999,-999.0,-999.0,100,0.03,,,1.84,,2013-10-16 14:52:00,
2013-10-16 10:11:00,50.0,50.0,-100.00,North,-999,-999.0,-999.0,100,0.03,,,-99.99,,2013-10-16 15:11:00,
2013-10-16 10:22:00,50.0,50.0,-100.00,North,-999,-999.0,-999.0,100,0.03,,,-99.99,,2013-10-16 15:22:00,
2013-10-16 10:53:00,50.0,50.0,-100.00,North,-999,-999.0,-999.0,100,0.00,,,1.84,,2013-10-16 15:53:00,
2013-10-16 11:23:00,51.0,51.0,-100.00,North,-999,-999.0,-999.0,100,-99.99,,,1.84,,2013-10-16 16:23:00,
2013-10-16 11:32:00,51.0,51.0,-100.00,North,-999,-999.0,-999.0,100,-99.99,,,1.84,,2013-10-16 16:32:00,
2013-10-16 11:53:00,51.0,51.0,-100.00,North,-999,-999.0,-999.0,100,0.00,,,1.84,,2013-10-16 16:53:00,
2013-10-16 12:22:00,51.0,51.0,-100.00,North,-999,-999.0,-999.0,100,0.00,,,-99.99,,2013-10-16 17:22:00,
2013-10-16 12:52:00,52.0,52.0,-100.00,North,-999,-999.0,-999.0,100,0.00,,,-99.99,,2013-10-16 17:52:00,
2013-10-16 13:21:00,52.0,52.0,-100.00,North,-999,-999.0,-999.0,100,0.00,,,-99.99,,2013-10-16 18:21:00,
2013-10-16 13:52:00,53.0,53.0,-100.00,North,-999,-999.0,-999.0,100,0.00,,,-99.99,,2013-10-16 18:52:00,
2013-10-16 14:11:00,53.0,53.0,-100.00,North,-999,-999.0,-999.0,100,0.00,,,-99.99,,2013-10-16 19:11:00,
2013-10-16 14:21:00,53.0,53.0,-100.00,North,-999,-999.0,-999.0,100,0.00,,,-99.99,,2013-10-16 19:21:00,
2013-10-16 14:52:00,55.0,55.0,-100.00,North,-999,-999.0,-999.0,100,0.00,,,1.84,,2013-10-16 19:52:00,
2013-10-16 15:12:00,55.0,55.0,-100.00,North,-999,-999.0,-999.0,100,0.00,,,1.84,,2013-10-16 20:12:00,
2013-10-16 15:22:00,55.0,55.0,-100.00,North,-999,-999.0,-999.0,100,0.00,,,1.84,,2013-10-16 20:22:00,
2013-10-16 15:52:00,57.0,57.0,-100.00,North,-999,-999.0,-999.0,100,0.00,,,1.84,,2013-10-16 20:52:00,
2013-10-16 16:23:00,59.0,56.0,-100.00,North,-999,-999.0,-999.0,92,-99.99,,,1.84,,2013-10-16 21:23:00,
2013-10-16 16:34:00,59.0,56.0,-100.00,North,-999,-999.0,-999.0,92,-99.99,,,1.84,,2013-10-16 21:34:00,
2013-10-16 16:54:00,61.0,55.0,-100.00,North,-999,-999.0,-999.0,81,0.00,,,1.83,,2013-10-16 21:54:00,
2013-10-16 17:04:00,61.0,55.0,-100.00,North,-999,-999.0,-999.0,81,0.00,,,1.83,,2013-10-16 22:04:00,
2013-10-16 17:23:00,61.0,55.0,-100.00,North,-999,-999.0,-999.0,80,0.00,,,-99.99,,2013-10-16 22:23:00,
2013-10-16 17:54:00,61.0,55.0,-100.00,North,-999,-999.0,-999.0,80,0.00,,,1.74,,2013-10-16 22:54:00,
2013-10-16 18:22:00,61.0,56.0,-100.00,North,-999,-999.0,-999.0,81,0.00,,,-99.99,,2013-10-16 23:22:00,
2013-10-16 18:52:00,61.0,54.0,-100.00,North,-999,-999.0,-999.0,80,0.00,,,1.72,,2013-10-16 23:52:00,
2013-10-16 19:22:00,60.0,55.0,-100.00,North,-999,-999.0,-999.0,84,0.00,,,1.72,,2013-10-17 00:22:00,
2013-10-16 19:52:00,59.0,55.0,-100.00,North,-999,-999.0,-999.0,87,0.00,,,1.72,,2013-10-17 00:52:00,
2013-10-16 20:22:00,59.0,55.0,-100.00,North,-999,-999.0,-999.0,88,0.00,,,1.72,,2013-10-17 01:22:00,
2013-10-16 20:32:00,59.0,55.0,-100.00,North,-999,-999.0,-999.0,88,0.00,,,1.72,,2013-10-17 01:32:00,
2013-10-16 20:52:00,59.0,55.0,-100.00,North,-999,-999.0,-999.0,89,0.00,,,1.72,,2013-10-17 01:52:00,
2013-10-16 21:03:00,59.0,55.0,-100.00,North,-999,-999.0,-999.0,89,0.00,,,1.72,,2013-10-17 02:03:00,
2013-10-16 21:21:00,58.0,56.0,-100.00,North,-999,-999.0,-999.0,93,0.00,,,1.72,,2013-10-17 02:21:00,
2013-10-16 22:22:00,57.0,54.0,-100.00,North,-999,-999.0,-999.0,91,0.00,,,-99.99,,2013-10-17 03:22:00,
2013-10-16 22:54:00,57.0,55.0,-100.00,North,-999,-999.0,-999.0,95,0.00,,,1.72,,2013-10-17 03:54:00,
2013-10-16 23:24:00,56.0,53.0,-100.00,North,-999,-999.0,-999.0,88,0.00,,,1.72,,2013-10-17 04:24:00,
2013-10-16 23:54:00,55.0,53.0,-100.00,North,-999,-999.0,-999.0,94,0.00,,,1.72,,2013-10-17 04:54:00,